Location: Chandrammap?lem
(16.9200°N, 81.0051°E)
Time: 01:52:55
(UTC+00:00)

CZ-3A R/B - Pass Details

Date: 29 May 2024
Orbit: 455 x 34768 km, 24.7° (Epoch: 16 June)

Event Time Altitude Azimuth Distance (km) Brightness Sun altitude
Rises 23:02:56 0° 285° (WNW) 7,354 7.1 -13.5°
Reaches altitude 10° 23:10:54 10° 272° (W) 3,817 5.5 -11.8°
Maximum altitude 23:16:14 20° 226° (SW) 1,749 3.8 -10.7°
Drops below altitude 10° 23:18:55 10° 174° (S) 1,790 4.2 -10.1°
Sets 23:20:53 0° 152° (SSE) 2,465 5.2 -9.7°
